Time,TemperatureF,DewpointF,PressureIn,WindDirection,WindDirectionDegrees,WindSpeedMPH,WindSpeedGustMPH,Humidity,HourlyPrecipIn,Conditions,Clouds,dailyrainin,SoftwareType,DateUTC
2013-04-03 00:00:00,27.2,15.8,30.19,WNW,293,2.0,4.3,62,0.00,,,0.00,WUHU216HW,2013-04-03 05:00:00,
2013-04-03 00:05:00,27.4,16.0,30.19,WNW,293,3.4,4.3,62,0.00,,,0.00,WUHU216HW,2013-04-03 05:05:00,
2013-04-03 00:10:00,27.4,16.0,30.19,NW,315,2.7,3.8,62,0.00,,,0.00,WUHU216HW,2013-04-03 05:10:00,
2013-04-03 00:15:00,27.2,15.8,30.19,WNW,293,2.5,3.8,62,0.00,,,0.00,WUHU216HW,2013-04-03 05:15:00,
2013-04-03 00:20:00,27.0,15.7,30.19,WNW,293,1.8,4.0,62,0.00,,,0.00,WUHU216HW,2013-04-03 05:20:00,
2013-04-03 00:25:00,26.8,15.1,30.19,West,270,2.5,4.0,61,0.00,,,0.00,WUHU216HW,2013-04-03 05:25:00,
2013-04-03 00:30:00,26.3,14.9,30.19,WNW,293,1.6,3.1,62,0.00,,,0.00,WUHU216HW,2013-04-03 05:30:00,
2013-04-03 00:35:00,26.1,14.5,30.19,NW,315,2.2,3.1,61,0.00,,,0.00,WUHU216HW,2013-04-03 05:35:00,
2013-04-03 00:40:00,26.1,14.8,30.19,WNW,293,1.8,2.9,62,0.00,,,0.00,WUHU216HW,2013-04-03 05:40:00,
2013-04-03 00:45:00,25.9,15.3,30.19,WNW,293,2.5,2.9,64,0.00,,,0.00,WUHU216HW,2013-04-03 05:45:00,
2013-04-03 00:50:00,25.9,15.0,30.20,West,270,1.1,2.9,63,0.00,,,0.00,WUHU216HW,2013-04-03 05:50:00,
2013-04-03 00:55:00,25.9,15.0,30.20,West,270,2.5,2.7,63,0.00,,,0.00,WUHU216HW,2013-04-03 05:55:00,
2013-04-03 01:00:00,25.6,15.0,30.20,WNW,293,2.7,2.9,64,0.00,,,0.00,WUHU216HW,2013-04-03 06:00:00,
2013-04-03 01:05:00,25.7,15.8,30.20,NW,315,2.7,3.4,66,0.00,,,0.00,WUHU216HW,2013-04-03 06:05:00,
2013-04-03 01:10:00,25.9,15.7,30.20,NW,315,3.8,4.7,65,0.00,,,0.00,WUHU216HW,2013-04-03 06:10:00,
2013-04-03 01:15:00,26.3,15.7,30.20,NNW,338,1.8,4.7,64,0.00,,,0.00,WUHU216HW,2013-04-03 06:15:00,
2013-04-03 01:20:00,26.3,15.7,30.20,NNW,338,2.5,5.1,64,0.00,,,0.00,WUHU216HW,2013-04-03 06:20:00,
2013-04-03 01:25:00,26.3,15.7,30.20,NNW,338,2.5,5.1,64,0.00,,,0.00,WUHU216HW,2013-04-03 06:25:00,
2013-04-03 01:30:00,26.3,15.7,30.20,NW,315,3.4,4.0,64,0.00,,,0.00,WUHU216HW,2013-04-03 06:30:00,
2013-04-03 01:35:00,26.3,15.7,30.20,NW,315,3.1,4.0,64,0.00,,,0.00,WUHU216HW,2013-04-03 06:35:00,
2013-04-03 01:40:00,25.9,15.3,30.20,North,0,1.8,3.6,64,0.00,,,0.00,WUHU216HW,2013-04-03 06:40:00,
2013-04-03 01:45:00,25.7,15.2,30.19,NNE,23,2.5,3.4,64,0.00,,,0.00,WUHU216HW,2013-04-03 06:45:00,
2013-04-03 01:50:00,25.7,14.9,30.19,NNW,338,1.1,3.1,63,0.00,,,0.00,WUHU216HW,2013-04-03 06:50:00,
2013-04-03 01:55:00,25.7,14.9,30.20,NNE,23,2.5,2.9,63,0.00,,,0.00,WUHU216HW,2013-04-03 06:55:00,
2013-04-03 02:00:00,25.7,15.2,30.20,NNW,338,1.8,3.1,64,0.00,,,0.00,WUHU216HW,2013-04-03 07:00:00,
2013-04-03 02:05:00,25.7,15.2,30.20,NNW,338,1.3,3.4,64,0.00,,,0.00,WUHU216HW,2013-04-03 07:05:00,
2013-04-03 02:10:00,25.7,15.2,30.20,NNW,338,2.2,3.4,64,0.00,,,0.00,WUHU216HW,2013-04-03 07:10:00,
2013-04-03 02:15:00,25.7,15.2,30.20,North,0,2.2,3.4,64,0.00,,,0.00,WUHU216HW,2013-04-03 07:15:00,
2013-04-03 02:20:00,26.1,15.5,30.20,North,0,3.4,4.5,64,0.00,,,0.00,WUHU216HW,2013-04-03 07:20:00,
2013-04-03 02:25:00,26.1,15.5,30.20,North,0,3.8,4.5,64,0.00,,,0.00,WUHU216HW,2013-04-03 07:25:00,
2013-04-03 02:30:00,26.1,15.8,30.20,NNE,23,3.6,4.7,65,0.00,,,0.00,WUHU216HW,2013-04-03 07:30:00,
2013-04-03 02:35:00,25.9,15.7,30.19,North,0,4.5,4.7,65,0.00,,,0.00,WUHU216HW,2013-04-03 07:35:00,
2013-04-03 02:40:00,25.9,16.0,30.20,North,0,2.0,4.7,66,0.00,,,0.00,WUHU216HW,2013-04-03 07:40:00,
2013-04-03 02:45:00,25.9,15.7,30.20,North,0,2.9,4.7,65,0.00,,,0.00,WUHU216HW,2013-04-03 07:45:00,
2013-04-03 02:50:00,25.9,15.7,30.20,North,0,1.1,4.5,65,0.00,,,0.00,WUHU216HW,2013-04-03 07:50:00,
2013-04-03 02:55:00,25.9,15.7,30.20,NW,315,2.2,4.5,65,0.00,,,0.00,WUHU216HW,2013-04-03 07:55:00,
2013-04-03 03:00:00,25.9,15.7,30.20,NW,315,1.8,4.5,65,0.00,,,0.00,WUHU216HW,2013-04-03 08:00:00,
2013-04-03 03:05:00,25.9,15.3,30.20,NW,315,1.8,4.7,64,0.00,,,0.00,WUHU216HW,2013-04-03 08:05:00,
2013-04-03 03:10:00,26.3,15.7,30.20,NW,315,4.7,7.6,64,0.00,,,0.00,WUHU216HW,2013-04-03 08:10:00,
2013-04-03 03:15:00,26.3,15.3,30.21,NNW,338,1.8,7.6,63,0.00,,,0.00,WUHU216HW,2013-04-03 08:15:00,
2013-04-03 03:20:00,26.1,15.1,30.21,NNE,23,2.9,6.5,63,0.00,,,0.00,WUHU216HW,2013-04-03 08:20:00,
2013-04-03 03:25:00,26.1,15.1,30.21,NNW,338,1.6,6.5,63,0.00,,,0.00,WUHU216HW,2013-04-03 08:25:00,
2013-04-03 03:30:00,26.3,15.3,30.21,NNW,338,2.0,6.5,63,0.00,,,0.00,WUHU216HW,2013-04-03 08:30:00,
2013-04-03 03:35:00,26.3,15.3,30.21,NW,315,2.9,6.3,63,0.00,,,0.00,WUHU216HW,2013-04-03 08:35:00,
2013-04-03 03:40:00,25.9,15.0,30.21,NNE,23,2.9,4.9,63,0.00,,,0.00,WUHU216HW,2013-04-03 08:40:00,
2013-04-03 03:45:00,25.9,15.3,30.21,NNW,338,2.2,4.9,64,0.00,,,0.00,WUHU216HW,2013-04-03 08:45:00,
2013-04-03 03:50:00,25.7,15.6,30.21,NNE,23,1.8,4.3,65,0.00,,,0.00,WUHU216HW,2013-04-03 08:50:00,
2013-04-03 03:55:00,25.7,15.6,30.21,NNW,338,2.5,3.6,65,0.00,,,0.00,WUHU216HW,2013-04-03 08:55:00,
2013-04-03 04:00:00,25.9,15.3,30.21,NNE,23,4.7,6.9,64,0.00,,,0.00,WUHU216HW,2013-04-03 09:00:00,
2013-04-03 04:05:00,26.1,15.1,30.22,North,0,4.3,6.9,63,0.00,,,0.00,WUHU216HW,2013-04-03 09:05:00,
2013-04-03 04:10:00,26.1,15.1,30.22,NW,315,4.9,6.0,63,0.00,,,0.00,WUHU216HW,2013-04-03 09:10:00,
2013-04-03 04:15:00,26.1,15.1,30.22,North,0,2.2,5.4,63,0.00,,,0.00,WUHU216HW,2013-04-03 09:15:00,
2013-04-03 04:20:00,26.1,15.1,30.22,NNW,338,2.0,5.4,63,0.00,,,0.00,WUHU216HW,2013-04-03 09:20:00,
2013-04-03 04:25:00,25.9,15.0,30.22,NNW,338,2.9,5.4,63,0.00,,,0.00,WUHU216HW,2013-04-03 09:25:00,
2013-04-03 04:30:00,25.9,15.0,30.22,NNW,338,1.8,6.0,63,0.00,,,0.00,WUHU216HW,2013-04-03 09:30:00,
2013-04-03 04:35:00,25.9,15.0,30.22,North,0,3.4,7.2,63,0.00,,,0.00,WUHU216HW,2013-04-03 09:35:00,
2013-04-03 04:40:00,25.9,15.0,30.22,NW,315,3.4,7.2,63,0.00,,,0.00,WUHU216HW,2013-04-03 09:40:00,
2013-04-03 04:45:00,25.9,15.0,30.22,NE,45,4.9,5.4,63,0.00,,,0.00,WUHU216HW,2013-04-03 09:45:00,
2013-04-03 04:50:00,25.7,14.9,30.22,NNW,338,1.3,4.9,63,0.00,,,0.00,WUHU216HW,2013-04-03 09:50:00,
2013-04-03 04:55:00,25.6,14.7,30.22,NNW,338,1.1,4.9,63,0.00,,,0.00,WUHU216HW,2013-04-03 09:55:00,
2013-04-03 05:00:00,25.4,14.5,30.23,WNW,293,1.8,4.0,63,0.00,,,0.00,WUHU216HW,2013-04-03 10:00:00,
2013-04-03 05:05:00,25.0,14.5,30.23,NW,315,0.9,3.4,64,0.00,,,0.00,WUHU216HW,2013-04-03 10:05:00,
2013-04-03 05:10:00,24.8,14.3,30.23,NW,315,0.0,2.7,64,0.00,,,0.00,WUHU216HW,2013-04-03 10:10:00,
2013-04-03 05:15:00,24.5,13.7,30.23,NW,315,0.2,2.5,63,0.00,,,0.00,WUHU216HW,2013-04-03 10:15:00,
2013-04-03 05:20:00,24.1,13.7,30.23,North,0,1.1,2.2,64,0.00,,,0.00,WUHU216HW,2013-04-03 10:20:00,
2013-04-03 05:25:00,24.1,14.0,30.23,North,0,0.4,2.5,65,0.00,,,0.00,WUHU216HW,2013-04-03 10:25:00,
2013-04-03 05:30:00,23.9,13.9,30.23,NNW,338,2.0,2.5,65,0.00,,,0.00,WUHU216HW,2013-04-03 10:30:00,
2013-04-03 05:35:00,23.9,14.9,30.23,NNE,23,2.9,2.9,68,0.00,,,0.00,WUHU216HW,2013-04-03 10:35:00,
2013-04-03 05:40:00,24.1,14.7,30.23,North,0,1.8,2.9,67,0.00,,,0.00,WUHU216HW,2013-04-03 10:40:00,
2013-04-03 05:45:00,24.1,14.7,30.23,North,0,0.9,2.9,67,0.00,,,0.00,WUHU216HW,2013-04-03 10:45:00,
2013-04-03 05:50:00,24.1,15.0,30.23,NNW,338,0.9,2.5,68,0.00,,,0.00,WUHU216HW,2013-04-03 10:50:00,
2013-04-03 05:55:00,24.1,15.0,30.24,NNW,338,1.3,3.4,68,0.00,,,0.00,WUHU216HW,2013-04-03 10:55:00,
2013-04-03 06:00:00,24.1,15.4,30.24,NW,315,1.8,3.4,69,0.00,,,0.00,WUHU216HW,2013-04-03 11:00:00,
2013-04-03 06:05:00,23.9,14.9,30.24,North,0,2.2,3.1,68,0.00,,,0.00,WUHU216HW,2013-04-03 11:05:00,
2013-04-03 06:10:00,23.9,14.9,30.24,North,0,2.2,3.1,68,0.00,,,0.00,WUHU216HW,2013-04-03 11:10:00,
2013-04-03 06:15:00,23.8,15.0,30.24,NNE,23,2.0,3.1,69,0.00,,,0.00,WUHU216HW,2013-04-03 11:15:00,
2013-04-03 06:20:00,23.6,14.6,30.25,North,0,2.2,2.9,68,0.00,,,0.00,WUHU216HW,2013-04-03 11:20:00,
2013-04-03 06:25:00,23.6,14.9,30.25,North,0,1.6,2.9,69,0.00,,,0.00,WUHU216HW,2013-04-03 11:25:00,
2013-04-03 06:30:00,23.6,14.9,30.25,NW,315,0.7,2.5,69,0.00,,,0.00,WUHU216HW,2013-04-03 11:30:00,
2013-04-03 06:35:00,23.2,14.2,30.25,WNW,293,0.0,1.8,68,0.00,,,0.00,WUHU216HW,2013-04-03 11:35:00,
2013-04-03 06:40:00,22.5,13.1,30.26,WSW,248,0.9,0.9,67,0.00,,,0.00,WUHU216HW,2013-04-03 11:40:00,
2013-04-03 06:45:00,22.1,13.1,30.26,SW,225,1.1,1.1,68,0.00,,,0.00,WUHU216HW,2013-04-03 11:45:00,
2013-04-03 06:50:00,22.1,13.1,30.27,SW,225,1.8,1.8,68,0.00,,,0.00,WUHU216HW,2013-04-03 11:50:00,
2013-04-03 06:55:00,22.9,14.6,30.27,WSW,248,1.3,2.7,70,0.00,,,0.00,WUHU216HW,2013-04-03 11:55:00,
2013-04-03 07:00:00,24.1,16.4,30.27,WSW,248,1.8,2.7,72,0.00,,,0.00,WUHU216HW,2013-04-03 12:00:00,
2013-04-03 07:05:00,25.6,17.7,30.27,SW,225,0.9,1.8,72,0.00,,,0.00,WUHU216HW,2013-04-03 12:05:00,
2013-04-03 07:10:00,25.6,16.7,30.27,SW,225,1.8,1.8,69,0.00,,,0.00,WUHU216HW,2013-04-03 12:10:00,
2013-04-03 07:15:00,25.0,16.2,30.27,WSW,248,1.6,2.0,69,0.00,,,0.00,WUHU216HW,2013-04-03 12:15:00,
2013-04-03 07:20:00,24.7,15.8,30.28,SW,225,2.2,2.2,69,0.00,,,0.00,WUHU216HW,2013-04-03 12:20:00,
2013-04-03 07:25:00,24.8,16.0,30.28,WSW,248,2.7,2.9,69,0.00,,,0.00,WUHU216HW,2013-04-03 12:25:00,
2013-04-03 07:30:00,25.0,16.2,30.29,WSW,248,3.4,4.0,69,0.00,,,0.00,WUHU216HW,2013-04-03 12:30:00,
2013-04-03 07:35:00,25.4,16.9,30.29,West,270,2.0,4.0,70,0.00,,,0.00,WUHU216HW,2013-04-03 12:35:00,
2013-04-03 07:40:00,25.7,17.3,30.29,WSW,248,4.3,4.7,70,0.00,,,0.00,WUHU216HW,2013-04-03 12:40:00,
2013-04-03 07:45:00,26.3,17.5,30.29,WSW,248,4.3,5.8,69,0.00,,,0.00,WUHU216HW,2013-04-03 12:45:00,
2013-04-03 07:50:00,26.6,17.8,30.29,WSW,248,4.7,6.9,69,0.00,,,0.00,WUHU216HW,2013-04-03 12:50:00,
2013-04-03 07:55:00,27.0,17.8,30.29,WSW,248,4.3,6.9,68,0.00,,,0.00,WUHU216HW,2013-04-03 12:55:00,
2013-04-03 08:00:00,27.4,17.8,30.30,WNW,293,2.2,5.4,67,0.00,,,0.00,WUHU216HW,2013-04-03 13:00:00,
2013-04-03 08:05:00,27.7,18.2,30.30,SW,225,4.3,5.4,67,0.00,,,0.00,WUHU216HW,2013-04-03 13:05:00,
2013-04-03 08:10:00,27.9,18.0,30.30,WSW,248,4.0,5.4,66,0.00,,,0.00,WUHU216HW,2013-04-03 13:10:00,
2013-04-03 08:15:00,28.3,18.0,30.30,NW,315,0.7,5.4,65,0.00,,,0.00,WUHU216HW,2013-04-03 13:15:00,
2013-04-03 08:20:00,28.4,18.2,30.30,WNW,293,0.4,4.7,65,0.00,,,0.00,WUHU216HW,2013-04-03 13:20:00,
2013-04-03 08:25:00,28.8,17.5,30.31,West,270,2.0,4.0,62,0.00,,,0.00,WUHU216HW,2013-04-03 13:25:00,
2013-04-03 08:30:00,29.2,18.1,30.31,West,270,2.0,4.3,63,0.00,,,0.00,WUHU216HW,2013-04-03 13:30:00,
2013-04-03 08:35:00,29.3,17.6,30.30,North,0,1.8,4.3,61,0.00,,,0.00,WUHU216HW,2013-04-03 13:35:00,
2013-04-03 08:40:00,29.7,17.9,30.30,North,0,1.8,3.4,61,0.00,,,0.00,WUHU216HW,2013-04-03 13:40:00,
2013-04-03 08:45:00,30.1,18.5,30.30,NW,315,0.7,2.7,62,0.00,,,0.00,WUHU216HW,2013-04-03 13:45:00,
2013-04-03 08:50:00,30.4,18.2,30.31,NW,315,1.1,2.7,60,0.00,,,0.00,WUHU216HW,2013-04-03 13:50:00,
2013-04-03 08:55:00,30.8,18.5,30.31,WSW,248,2.0,3.4,60,0.00,,,0.00,WUHU216HW,2013-04-03 13:55:00,
2013-04-03 09:00:00,31.3,19.1,30.31,West,270,2.2,3.4,60,0.00,,,0.00,WUHU216HW,2013-04-03 14:00:00,
2013-04-03 09:05:00,31.9,19.2,30.31,WNW,293,1.3,3.1,59,0.00,,,0.00,WUHU216HW,2013-04-03 14:05:00,
2013-04-03 09:10:00,32.0,18.1,30.31,NW,315,0.4,3.1,56,0.00,,,0.00,WUHU216HW,2013-04-03 14:10:00,
2013-04-03 09:15:00,32.6,18.5,30.31,North,0,2.5,2.5,56,0.00,,,0.00,WUHU216HW,2013-04-03 14:15:00,
2013-04-03 09:20:00,32.9,18.0,30.30,North,0,1.6,3.4,54,0.00,,,0.00,WUHU216HW,2013-04-03 14:20:00,
2013-04-03 09:25:00,33.1,18.2,30.31,NW,315,1.3,3.4,54,0.00,,,0.00,WUHU216HW,2013-04-03 14:25:00,
2013-04-03 09:30:00,33.5,17.2,30.30,NNE,23,0.9,3.8,51,0.00,,,0.00,WUHU216HW,2013-04-03 14:30:00,
2013-04-03 09:35:00,34.0,15.8,30.31,North,0,2.2,3.8,47,0.00,,,0.00,WUHU216HW,2013-04-03 14:35:00,
2013-04-03 09:40:00,34.2,14.4,30.31,NW,315,1.6,3.1,44,0.00,,,0.00,WUHU216HW,2013-04-03 14:40:00,
2013-04-03 09:45:00,34.6,14.2,30.31,NNE,23,4.0,4.0,43,0.00,,,0.00,WUHU216HW,2013-04-03 14:45:00,
2013-04-03 09:50:00,34.9,15.6,30.31,NE,45,1.3,4.0,45,0.00,,,0.00,WUHU216HW,2013-04-03 14:50:00,
2013-04-03 09:55:00,35.3,16.5,30.31,NE,45,5.6,7.6,46,0.00,,,0.00,WUHU216HW,2013-04-03 14:55:00,
2013-04-03 09:59:00,35.3,16.5,30.31,NE,45,5.4,8.5,46,0.00,,,0.00,WUHU216HW,2013-04-03 14:59:00,
2013-04-03 10:04:00,35.3,15.9,30.32,NNW,338,1.8,8.5,45,0.00,,,0.00,WUHU216HW,2013-04-03 15:04:00,
2013-04-03 10:09:00,35.5,16.7,30.32,North,0,0.7,5.4,46,0.00,,,0.00,WUHU216HW,2013-04-03 15:09:00,
2013-04-03 10:14:00,35.8,16.5,30.32,NNE,23,3.4,8.7,45,0.00,,,0.00,WUHU216HW,2013-04-03 15:14:00,
2013-04-03 10:19:00,36.4,16.9,30.32,NNE,23,4.9,8.7,45,0.00,,,0.00,WUHU216HW,2013-04-03 15:19:00,
2013-04-03 10:24:00,36.7,16.7,30.32,North,0,2.2,5.4,44,0.00,,,0.00,WUHU216HW,2013-04-03 15:24:00,
2013-04-03 10:29:00,36.4,14.9,30.31,NE,45,5.4,6.3,41,0.00,,,0.00,WUHU216HW,2013-04-03 15:29:00,
2013-04-03 10:34:00,36.7,17.3,30.31,NNE,23,6.7,6.7,45,0.00,,,0.00,WUHU216HW,2013-04-03 15:34:00,
2013-04-03 10:39:00,36.7,16.2,30.31,NE,45,2.9,8.5,43,0.00,,,0.00,WUHU216HW,2013-04-03 15:39:00,
2013-04-03 10:44:00,36.9,16.4,30.30,NNE,23,4.9,8.5,43,0.00,,,0.00,WUHU216HW,2013-04-03 15:44:00,
2013-04-03 10:49:00,36.4,16.4,30.30,NNE,23,6.3,10.7,44,0.00,,,0.00,WUHU216HW,2013-04-03 15:49:00,
2013-04-03 10:55:00,36.4,15.9,30.30,NNE,23,5.8,11.6,43,0.00,,,0.00,WUHU216HW,2013-04-03 15:55:00,
2013-04-03 11:00:00,36.7,15.7,30.30,NNE,23,6.9,11.6,42,0.00,,,0.00,WUHU216HW,2013-04-03 16:00:00,
2013-04-03 11:05:00,36.7,14.1,30.30,NE,45,9.8,12.1,39,0.00,,,0.00,WUHU216HW,2013-04-03 16:05:00,
2013-04-03 11:10:00,36.7,15.2,30.30,NE,45,5.6,12.1,41,0.00,,,0.00,WUHU216HW,2013-04-03 16:10:00,
2013-04-03 11:15:00,37.3,15.1,30.30,NE,45,5.8,9.8,40,0.00,,,0.00,WUHU216HW,2013-04-03 16:15:00,
2013-04-03 11:20:00,37.6,16.5,30.29,NE,45,6.3,8.5,42,0.00,,,0.00,WUHU216HW,2013-04-03 16:20:00,
2013-04-03 11:25:00,37.8,15.7,30.29,NNE,23,4.7,10.5,40,0.00,,,0.00,WUHU216HW,2013-04-03 16:25:00,
2013-04-03 11:30:00,37.8,17.2,30.29,NNE,23,6.9,10.5,43,0.00,,,0.00,WUHU216HW,2013-04-03 16:30:00,
2013-04-03 11:35:00,37.8,15.7,30.29,NNE,23,13.2,13.2,40,0.00,,,0.00,WUHU216HW,2013-04-03 16:35:00,
2013-04-03 11:40:00,37.8,15.7,30.29,ENE,68,6.5,13.2,40,0.00,,,0.00,WUHU216HW,2013-04-03 16:40:00,
2013-04-03 11:45:00,37.8,13.1,30.28,NNE,23,8.5,13.2,36,0.00,,,0.00,WUHU216HW,2013-04-03 16:45:00,
2013-04-03 11:50:00,37.8,14.9,30.28,WNW,293,1.8,11.0,39,0.00,,,0.00,WUHU216HW,2013-04-03 16:50:00,
2013-04-03 11:55:00,38.2,15.3,30.28,NNE,23,8.9,9.8,39,0.00,,,0.00,WUHU216HW,2013-04-03 16:55:00,
2013-04-03 12:00:00,38.5,15.7,30.28,NNE,23,4.5,9.8,39,0.00,,,0.00,WUHU216HW,2013-04-03 17:00:00,
2013-04-03 12:05:00,38.2,12.7,30.28,NNE,23,1.6,9.8,35,0.00,,,0.00,WUHU216HW,2013-04-03 17:05:00,
2013-04-03 12:10:00,38.0,13.9,30.28,NNE,23,8.1,9.8,37,0.00,,,0.00,WUHU216HW,2013-04-03 17:10:00,
2013-04-03 12:15:00,38.2,14.1,30.28,North,0,7.6,9.8,37,0.00,,,0.00,WUHU216HW,2013-04-03 17:15:00,
2013-04-03 12:20:00,38.7,15.1,30.27,ESE,113,3.6,8.1,38,0.00,,,0.00,WUHU216HW,2013-04-03 17:20:00,
2013-04-03 12:25:00,39.1,14.1,30.27,NNE,23,6.0,10.1,36,0.00,,,0.00,WUHU216HW,2013-04-03 17:25:00,
2013-04-03 12:30:00,39.1,13.5,30.27,NW,315,1.8,10.1,35,0.00,,,0.00,WUHU216HW,2013-04-03 17:30:00,
2013-04-03 12:35:00,39.2,15.7,30.27,SE,135,4.7,8.1,38,0.00,,,0.00,WUHU216HW,2013-04-03 17:35:00,
2013-04-03 12:40:00,39.6,15.3,30.27,NNE,23,7.2,9.2,37,0.00,,,0.00,WUHU216HW,2013-04-03 17:40:00,
2013-04-03 12:45:00,39.6,15.3,30.27,North,0,3.8,9.2,37,0.00,,,0.00,WUHU216HW,2013-04-03 17:45:00,
2013-04-03 12:50:00,39.6,14.7,30.28,NNE,23,4.3,7.2,36,0.00,,,0.00,WUHU216HW,2013-04-03 17:50:00,
2013-04-03 12:55:00,39.8,14.1,30.27,ENE,68,3.4,6.7,35,0.00,,,0.00,WUHU216HW,2013-04-03 17:55:00,
2013-04-03 13:00:00,40.0,14.9,30.27,NNE,23,6.9,6.9,36,0.00,,,0.00,WUHU216HW,2013-04-03 18:00:00,
2013-04-03 13:05:00,40.1,11.9,30.27,NNE,23,5.4,7.6,31,0.00,,,0.00,WUHU216HW,2013-04-03 18:05:00,
2013-04-03 13:10:00,40.1,13.2,30.27,SSE,158,2.5,7.6,33,0.00,,,0.00,WUHU216HW,2013-04-03 18:10:00,
2013-04-03 13:15:00,40.3,14.7,30.27,NNE,23,1.1,5.8,35,0.00,,,0.00,WUHU216HW,2013-04-03 18:15:00,
2013-04-03 13:20:00,41.0,15.3,30.27,ESE,113,4.0,9.6,35,0.00,,,0.00,WUHU216HW,2013-04-03 18:20:00,
2013-04-03 13:25:00,41.2,15.5,30.27,East,90,6.7,9.6,35,0.00,,,0.00,WUHU216HW,2013-04-03 18:25:00,
2013-04-03 13:30:00,41.2,16.7,30.27,SSE,158,2.0,6.9,37,0.00,,,0.00,WUHU216HW,2013-04-03 18:30:00,
2013-04-03 13:35:00,42.1,16.2,30.27,SE,135,5.6,7.6,35,0.00,,,0.00,WUHU216HW,2013-04-03 18:35:00,
2013-04-03 13:40:00,42.5,17.2,30.27,NNW,338,0.9,7.6,36,0.00,,,0.00,WUHU216HW,2013-04-03 18:40:00,
2013-04-03 13:45:00,42.1,16.9,30.27,SE,135,7.4,7.4,36,0.00,,,0.00,WUHU216HW,2013-04-03 18:45:00,
2013-04-03 13:50:00,41.4,15.6,30.27,East,90,4.0,7.6,35,0.00,,,0.00,WUHU216HW,2013-04-03 18:50:00,
2013-04-03 13:55:00,41.2,14.8,30.27,ESE,113,2.2,7.6,34,0.00,,,0.00,WUHU216HW,2013-04-03 18:55:00,
2013-04-03 14:00:00,41.6,16.4,30.27,ESE,113,7.8,7.8,36,0.00,,,0.00,WUHU216HW,2013-04-03 19:00:00,
2013-04-03 14:05:00,41.9,16.0,30.27,SE,135,1.1,8.9,35,0.00,,,0.00,WUHU216HW,2013-04-03 19:05:00,
2013-04-03 14:10:00,42.7,16.7,30.27,ESE,113,2.2,8.9,35,0.00,,,0.00,WUHU216HW,2013-04-03 19:10:00,
2013-04-03 14:15:00,42.8,16.8,30.27,SSW,203,5.6,6.9,35,0.00,,,0.00,WUHU216HW,2013-04-03 19:15:00,
2013-04-03 14:20:00,43.4,18.0,30.27,SSE,158,2.5,6.9,36,0.00,,,0.00,WUHU216HW,2013-04-03 19:20:00,
2013-04-03 14:25:00,43.9,18.5,30.27,SE,135,6.0,7.6,36,0.00,,,0.00,WUHU216HW,2013-04-03 19:25:00,
2013-04-03 14:30:00,44.3,18.1,30.26,SE,135,1.6,7.6,35,0.00,,,0.00,WUHU216HW,2013-04-03 19:30:00,
2013-04-03 14:35:00,43.7,16.3,30.26,NNW,338,1.1,6.9,33,0.00,,,0.00,WUHU216HW,2013-04-03 19:35:00,
2013-04-03 14:40:00,43.7,17.0,30.26,SE,135,5.6,11.0,34,0.00,,,0.00,WUHU216HW,2013-04-03 19:40:00,
2013-04-03 14:45:00,43.9,18.5,30.25,SSW,203,3.6,11.0,36,0.00,,,0.00,WUHU216HW,2013-04-03 19:45:00,
2013-04-03 14:50:00,44.3,18.1,30.25,South,180,0.4,7.6,35,0.00,,,0.00,WUHU216HW,2013-04-03 19:50:00,
2013-04-03 14:56:00,44.6,17.8,30.25,WSW,248,3.4,7.6,34,0.00,,,0.00,WUHU216HW,2013-04-03 19:56:00,
2013-04-03 15:01:00,44.3,16.8,30.25,SE,135,4.5,6.7,33,0.00,,,0.00,WUHU216HW,2013-04-03 20:01:00,
2013-04-03 15:06:00,44.8,17.3,30.25,WSW,248,3.6,6.7,33,0.00,,,0.00,WUHU216HW,2013-04-03 20:06:00,
2013-04-03 15:11:00,44.8,17.3,30.24,East,90,2.2,5.6,33,0.00,,,0.00,WUHU216HW,2013-04-03 20:11:00,
2013-04-03 15:16:00,44.5,16.9,30.24,SE,135,6.7,7.6,33,0.00,,,0.00,WUHU216HW,2013-04-03 20:16:00,
2013-04-03 15:21:00,44.3,16.8,30.24,SSW,203,2.7,8.7,33,0.00,,,0.00,WUHU216HW,2013-04-03 20:21:00,
2013-04-03 15:26:00,44.1,16.7,30.24,East,90,2.7,8.7,33,0.00,,,0.00,WUHU216HW,2013-04-03 20:26:00,
2013-04-03 15:30:00,44.5,18.3,30.23,SSE,158,8.5,9.2,35,0.00,,,0.00,WUHU216HW,2013-04-03 20:30:00,
2013-04-03 15:35:00,44.6,17.1,30.23,SW,225,5.4,9.8,33,0.00,,,0.00,WUHU216HW,2013-04-03 20:35:00,
2013-04-03 15:40:00,44.8,17.3,30.23,SSE,158,6.7,9.8,33,0.00,,,0.00,WUHU216HW,2013-04-03 20:40:00,
2013-04-03 15:45:00,45.2,17.7,30.22,South,180,5.4,6.7,33,0.00,,,0.00,WUHU216HW,2013-04-03 20:45:00,
2013-04-03 15:51:00,45.4,17.7,30.23,SSW,203,4.0,7.4,33,0.00,,,0.00,WUHU216HW,2013-04-03 20:51:00,
2013-04-03 15:56:00,45.2,16.9,30.23,South,180,3.1,7.4,32,0.00,,,0.00,WUHU216HW,2013-04-03 20:56:00,
2013-04-03 16:01:00,45.0,16.7,30.22,SSW,203,6.3,7.2,32,0.00,,,0.00,WUHU216HW,2013-04-03 21:01:00,
2013-04-03 16:06:00,45.0,16.1,30.22,SSW,203,3.4,8.5,31,0.00,,,0.00,WUHU216HW,2013-04-03 21:06:00,
2013-04-03 16:11:00,45.0,16.7,30.22,SW,225,4.0,8.5,32,0.00,,,0.00,WUHU216HW,2013-04-03 21:11:00,
2013-04-03 16:16:00,45.0,16.7,30.22,SE,135,5.4,7.6,32,0.00,,,0.00,WUHU216HW,2013-04-03 21:16:00,
2013-04-03 16:21:00,44.6,17.1,30.22,SE,135,5.6,7.6,33,0.00,,,0.00,WUHU216HW,2013-04-03 21:21:00,
2013-04-03 16:26:00,44.8,17.3,30.22,East,90,1.8,7.2,33,0.00,,,0.00,WUHU216HW,2013-04-03 21:26:00,
2013-04-03 16:31:00,44.8,17.3,30.21,SE,135,4.7,6.7,33,0.00,,,0.00,WUHU216HW,2013-04-03 21:31:00,
2013-04-03 16:36:00,44.3,15.5,30.22,ESE,113,5.6,9.8,31,0.00,,,0.00,WUHU216HW,2013-04-03 21:36:00,
2013-04-03 16:41:00,44.1,18.0,30.21,SSW,203,4.7,9.8,35,0.00,,,0.00,WUHU216HW,2013-04-03 21:41:00,
2013-04-03 16:46:00,44.5,16.9,30.21,SE,135,3.4,6.3,33,0.00,,,0.00,WUHU216HW,2013-04-03 21:46:00,
2013-04-03 16:51:00,44.5,18.3,30.21,South,180,4.9,6.3,35,0.00,,,0.00,WUHU216HW,2013-04-03 21:51:00,
2013-04-03 16:56:00,44.3,18.1,30.21,SSE,158,5.6,7.4,35,0.00,,,0.00,WUHU216HW,2013-04-03 21:56:00,
2013-04-03 17:01:00,44.3,18.1,30.21,SE,135,4.5,7.4,35,0.00,,,0.00,WUHU216HW,2013-04-03 22:01:00,
2013-04-03 17:06:00,44.3,18.8,30.21,SSE,158,4.0,6.0,36,0.00,,,0.00,WUHU216HW,2013-04-03 22:06:00,
2013-04-03 17:11:00,44.3,18.8,30.21,SE,135,4.9,6.5,36,0.00,,,0.00,WUHU216HW,2013-04-03 22:11:00,
2013-04-03 17:16:00,43.9,18.5,30.21,East,90,0.9,8.1,36,0.00,,,0.00,WUHU216HW,2013-04-03 22:16:00,
2013-04-03 17:21:00,43.9,18.5,30.20,NE,45,2.0,8.1,36,0.00,,,0.00,WUHU216HW,2013-04-03 22:21:00,
2013-04-03 17:26:00,43.9,19.2,30.21,SSW,203,3.1,7.2,37,0.00,,,0.00,WUHU216HW,2013-04-03 22:26:00,
2013-04-03 17:31:00,44.1,18.0,30.20,SSE,158,1.1,7.2,35,0.00,,,0.00,WUHU216HW,2013-04-03 22:31:00,
2013-04-03 17:36:00,43.9,16.5,30.20,SSE,158,4.7,5.4,33,0.00,,,0.00,WUHU216HW,2013-04-03 22:36:00,
2013-04-03 17:41:00,43.9,16.5,30.20,SW,225,7.6,9.2,33,0.00,,,0.00,WUHU216HW,2013-04-03 22:41:00,
2013-04-03 17:46:00,43.7,17.6,30.20,SSW,203,5.1,9.2,35,0.00,,,0.00,WUHU216HW,2013-04-03 22:46:00,
2013-04-03 17:51:00,43.6,16.1,30.20,SW,225,8.1,8.1,33,0.00,,,0.00,WUHU216HW,2013-04-03 22:51:00,
2013-04-03 17:56:00,43.0,15.7,30.20,South,180,5.4,8.1,33,0.00,,,0.00,WUHU216HW,2013-04-03 22:56:00,
2013-04-03 18:01:00,42.8,16.8,30.20,SSW,203,5.4,8.5,35,0.00,,,0.00,WUHU216HW,2013-04-03 23:01:00,
2013-04-03 18:06:00,42.5,17.8,30.19,SSW,203,4.9,8.5,37,0.00,,,0.00,WUHU216HW,2013-04-03 23:06:00,
2013-04-03 18:11:00,42.3,16.4,30.19,WSW,248,4.3,8.1,35,0.00,,,0.00,WUHU216HW,2013-04-03 23:11:00,
2013-04-03 18:16:00,42.5,17.2,30.19,SSE,158,5.8,7.4,36,0.00,,,0.00,WUHU216HW,2013-04-03 23:16:00,
2013-04-03 18:21:00,42.1,17.6,30.18,SSW,203,3.4,6.7,37,0.00,,,0.00,WUHU216HW,2013-04-03 23:21:00,
2013-04-03 18:26:00,42.1,18.8,30.18,SSW,203,4.0,6.3,39,0.00,,,0.00,WUHU216HW,2013-04-03 23:26:00,
2013-04-03 18:31:00,41.6,19.0,30.18,SSW,203,3.6,5.4,40,0.00,,,0.00,WUHU216HW,2013-04-03 23:31:00,
2013-04-03 18:36:00,41.4,18.2,30.18,SSE,158,3.1,5.1,39,0.00,,,0.00,WUHU216HW,2013-04-03 23:36:00,
2013-04-03 18:41:00,41.4,18.9,30.18,SW,225,3.4,4.5,40,0.00,,,0.00,WUHU216HW,2013-04-03 23:41:00,
2013-04-03 18:46:00,41.2,18.7,30.18,SSE,158,4.3,4.5,40,0.00,,,0.00,WUHU216HW,2013-04-03 23:46:00,
2013-04-03 18:52:00,40.9,18.4,30.18,SE,135,2.5,4.7,40,0.00,,,0.00,WUHU216HW,2013-04-03 23:52:00,
2013-04-03 18:57:00,40.5,19.1,30.18,SSW,203,2.7,4.7,42,0.00,,,0.00,WUHU216HW,2013-04-03 23:57:00,
2013-04-03 19:02:00,40.1,19.8,30.18,SSE,158,2.7,4.0,44,0.00,,,0.00,WUHU216HW,2013-04-04 00:02:00,
2013-04-03 19:07:00,40.0,20.2,30.18,SSW,203,2.5,4.0,45,0.00,,,0.00,WUHU216HW,2013-04-04 00:07:00,
2013-04-03 19:12:00,40.0,20.2,30.18,SSE,158,3.4,3.4,45,0.00,,,0.00,WUHU216HW,2013-04-04 00:12:00,
2013-04-03 19:17:00,40.5,20.2,30.18,South,180,3.1,3.4,44,0.00,,,0.00,WUHU216HW,2013-04-04 00:17:00,
2013-04-03 19:22:00,39.8,19.5,30.18,SSW,203,2.9,5.1,44,0.00,,,0.00,WUHU216HW,2013-04-04 00:22:00,
2013-04-03 19:27:00,39.1,18.8,30.18,South,180,3.4,5.1,44,0.00,,,0.00,WUHU216HW,2013-04-04 00:27:00,
2013-04-03 19:32:00,38.5,18.9,30.18,SW,225,4.0,4.0,45,0.00,,,0.00,WUHU216HW,2013-04-04 00:32:00,
2013-04-03 19:37:00,38.2,18.5,30.17,SSW,203,2.5,4.3,45,0.00,,,0.00,WUHU216HW,2013-04-04 00:37:00,
2013-04-03 19:42:00,37.8,18.3,30.17,SW,225,2.0,4.3,45,0.00,,,0.00,WUHU216HW,2013-04-04 00:42:00,
2013-04-03 19:47:00,37.6,18.1,30.17,SSW,203,3.6,4.0,45,0.00,,,0.00,WUHU216HW,2013-04-04 00:47:00,
2013-04-03 19:52:00,37.4,18.5,30.17,SW,225,2.0,4.0,46,0.00,,,0.00,WUHU216HW,2013-04-04 00:52:00,
2013-04-03 19:57:00,37.1,18.1,30.17,South,180,1.8,3.4,46,0.00,,,0.00,WUHU216HW,2013-04-04 00:57:00,
2013-04-03 20:02:00,36.7,18.3,30.17,SSW,203,2.2,3.4,47,0.00,,,0.00,WUHU216HW,2013-04-04 01:02:00,
2013-04-03 20:07:00,36.4,18.6,30.17,South,180,1.3,2.7,48,0.00,,,0.00,WUHU216HW,2013-04-04 01:07:00,
2013-04-03 20:12:00,36.2,18.4,30.17,South,180,1.6,2.5,48,0.00,,,0.00,WUHU216HW,2013-04-04 01:12:00,
2013-04-03 20:17:00,35.8,18.0,30.17,SSE,158,1.6,2.5,48,0.00,,,0.00,WUHU216HW,2013-04-04 01:17:00,
2013-04-03 20:22:00,35.6,18.9,30.17,South,180,3.8,3.8,50,0.00,,,0.00,WUHU216HW,2013-04-04 01:22:00,
2013-04-03 20:27:00,35.5,18.7,30.17,South,180,1.8,3.8,50,0.00,,,0.00,WUHU216HW,2013-04-04 01:27:00,
2013-04-03 20:32:00,35.3,18.0,30.17,SSW,203,1.3,2.5,49,0.00,,,0.00,WUHU216HW,2013-04-04 01:32:00,
2013-04-03 20:37:00,34.9,18.2,30.17,SSW,203,1.8,2.5,50,0.00,,,0.00,WUHU216HW,2013-04-04 01:37:00,
2013-04-03 20:42:00,34.7,18.5,30.17,SSW,203,2.5,2.7,51,0.00,,,0.00,WUHU216HW,2013-04-04 01:42:00,
2013-04-03 20:47:00,34.6,18.7,30.17,SSW,203,2.2,3.4,52,0.00,,,0.00,WUHU216HW,2013-04-04 01:47:00,
2013-04-03 20:52:00,34.6,18.7,30.17,SSW,203,2.2,3.4,52,0.00,,,0.00,WUHU216HW,2013-04-04 01:52:00,
2013-04-03 20:57:00,34.6,18.7,30.17,SSW,203,3.1,3.1,52,0.00,,,0.00,WUHU216HW,2013-04-04 01:57:00,
2013-04-03 21:02:00,34.6,18.7,30.17,South,180,2.0,3.4,52,0.00,,,0.00,WUHU216HW,2013-04-04 02:02:00,
2013-04-03 21:07:00,34.6,19.1,30.17,SSW,203,2.2,3.4,53,0.00,,,0.00,WUHU216HW,2013-04-04 02:07:00,
2013-04-03 21:12:00,34.6,19.1,30.17,SSW,203,2.9,4.3,53,0.00,,,0.00,WUHU216HW,2013-04-04 02:12:00,
2013-04-03 21:17:00,34.6,19.1,30.17,SSW,203,3.4,4.3,53,0.00,,,0.00,WUHU216HW,2013-04-04 02:17:00,
2013-04-03 21:22:00,34.6,19.5,30.17,SSW,203,3.8,4.5,54,0.00,,,0.00,WUHU216HW,2013-04-04 02:22:00,
2013-04-03 21:27:00,34.7,19.7,30.17,SSW,203,4.0,4.5,54,0.00,,,0.00,WUHU216HW,2013-04-04 02:27:00,
2013-04-03 21:32:00,34.7,19.3,30.17,SSE,158,4.0,4.7,53,0.00,,,0.00,WUHU216HW,2013-04-04 02:32:00,
2013-04-03 21:37:00,34.9,19.4,30.17,SSE,158,4.0,5.4,53,0.00,,,0.00,WUHU216HW,2013-04-04 02:37:00,
2013-04-03 21:42:00,35.1,19.6,30.17,SW,225,4.0,5.4,53,0.00,,,0.00,WUHU216HW,2013-04-04 02:42:00,
2013-04-03 21:47:00,35.5,19.6,30.17,SSW,203,3.6,5.6,52,0.00,,,0.00,WUHU216HW,2013-04-04 02:47:00,
2013-04-03 21:52:00,35.6,19.8,30.16,SSW,203,4.9,5.6,52,0.00,,,0.00,WUHU216HW,2013-04-04 02:52:00,
2013-04-03 21:57:00,35.6,19.8,30.17,SW,225,4.5,5.1,52,0.00,,,0.00,WUHU216HW,2013-04-04 02:57:00,
2013-04-03 22:02:00,35.6,19.8,30.16,SSW,203,4.0,5.4,52,0.00,,,0.00,WUHU216HW,2013-04-04 03:02:00,
2013-04-03 22:07:00,35.6,19.8,30.16,SSW,203,4.5,6.3,52,0.00,,,0.00,WUHU216HW,2013-04-04 03:07:00,
2013-04-03 22:12:00,35.6,19.8,30.16,SW,225,5.1,6.3,52,0.00,,,0.00,WUHU216HW,2013-04-04 03:12:00,
2013-04-03 22:17:00,35.6,20.2,30.16,SSW,203,4.3,6.0,53,0.00,,,0.00,WUHU216HW,2013-04-04 03:17:00,
2013-04-03 22:22:00,35.5,20.0,30.16,SSW,203,3.8,6.0,53,0.00,,,0.00,WUHU216HW,2013-04-04 03:22:00,
2013-04-03 22:27:00,35.5,20.4,30.16,SSW,203,4.5,5.4,54,0.00,,,0.00,WUHU216HW,2013-04-04 03:27:00,
2013-04-03 22:32:00,35.3,20.3,30.15,SSW,203,6.0,6.0,54,0.00,,,0.00,WUHU216HW,2013-04-04 03:32:00,
2013-04-03 22:37:00,35.5,20.4,30.15,SSW,203,4.9,6.3,54,0.00,,,0.00,WUHU216HW,2013-04-04 03:37:00,
2013-04-03 22:42:00,35.5,20.0,30.15,SW,225,4.3,6.3,53,0.00,,,0.00,WUHU216HW,2013-04-04 03:42:00,
2013-04-03 22:47:00,35.3,19.8,30.15,SW,225,5.6,6.3,53,0.00,,,0.00,WUHU216HW,2013-04-04 03:47:00,
2013-04-03 22:52:00,35.3,20.3,30.15,SW,225,5.4,6.3,54,0.00,,,0.00,WUHU216HW,2013-04-04 03:52:00,
2013-04-03 22:57:00,35.3,20.3,30.15,SSW,203,5.4,6.3,54,0.00,,,0.00,WUHU216HW,2013-04-04 03:57:00,
2013-04-03 23:00:00,35.3,20.3,30.15,SSW,203,5.1,6.3,54,0.00,,,0.00,WUHU216HW,2013-04-04 04:00:00,
2013-04-03 23:05:00,35.1,20.5,30.14,SSW,203,4.7,5.4,55,0.00,,,0.00,WUHU216HW,2013-04-04 04:05:00,
2013-04-03 23:10:00,34.9,20.8,30.14,SSW,203,3.4,5.4,56,0.00,,,0.00,WUHU216HW,2013-04-04 04:10:00,
2013-04-03 23:15:00,34.2,20.1,30.15,SW,225,3.4,5.4,56,0.00,,,0.00,WUHU216HW,2013-04-04 04:15:00,
2013-04-03 23:20:00,33.8,19.7,30.14,SSW,203,2.5,5.4,56,0.00,,,0.00,WUHU216HW,2013-04-04 04:20:00,
2013-04-03 23:25:00,33.5,19.4,30.14,South,180,2.2,4.9,56,0.00,,,0.00,WUHU216HW,2013-04-04 04:25:00,
2013-04-03 23:30:00,33.1,20.3,30.14,SE,135,2.5,4.9,59,0.00,,,0.00,WUHU216HW,2013-04-04 04:30:00,
2013-04-03 23:35:00,32.9,20.6,30.14,SE,135,2.9,4.7,60,0.00,,,0.00,WUHU216HW,2013-04-04 04:35:00,
2013-04-03 23:40:00,32.6,21.0,30.14,SSE,158,2.5,5.1,62,0.00,,,0.00,WUHU216HW,2013-04-04 04:40:00,
2013-04-03 23:45:00,32.2,20.7,30.14,SSW,203,4.3,5.1,62,0.00,,,0.00,WUHU216HW,2013-04-04 04:45:00,
2013-04-03 23:50:00,32.0,20.5,30.13,SW,225,2.7,5.1,62,0.00,,,0.00,WUHU216HW,2013-04-04 04:50:00,
2013-04-03 23:55:00,31.7,20.9,30.13,South,180,4.0,6.0,64,0.00,,,0.00,WUHU216HW,2013-04-04 04:55:00,